Total_Precipitation_Accumulation
0.01 0.01 0.11 0.30 0.28 0.24 0.20 0.10 0.06 0.02 0.00 0.00 0.01 0.02 0.02 0.05 0.04 0.03 0.02 0.02 0.01 0.01 0.03 0.03 0.02 0.03 0.02 0.00 0.00 0.00 0.00 0.00 0.00 0.00 0.00 0.01 0.03 0.02 0.01 0.02 0.03 0.02 0.02
0.08 0.03 0.14 0.29 0.31 0.21 0.13 0.13 0.12 0.08 0.02 0.01 0.01 0.01 0.00 0.01 0.02 0.03 0.03 0.01 0.01 0.00 0.02 0.04 0.02 0.05 0.02 0.01 0.02 0.02 0.01 0.00 0.00 0.00 0.00 0.00 0.01 0.03 0.00 0.00 0.00 0.00 0.01
0.03 0.03 0.04 0.15 0.22 0.20 0.16 0.09 0.11 0.11 0.07 0.03 0.01 0.01 0.01 0.00 0.00 0.00 0.00 0.00 0.00 0.00 0.00 0.03 0.06 0.07 0.07 0.01 0.03 0.03 0.02 0.01 0.00 0.00 0.00 0.00 0.00 0.03 0.01 0.01 0.00 0.00 0.00
0.02 0.02 0.01 0.08 0.10 0.12 0.14 0.13 0.12 0.06 0.07 0.07 0.05 0.02 0.01 0.01 0.00 0.00 0.00 0.00 0.00 0.00 0.04 0.05 0.05 0.06 0.06 0.01 0.02 0.03 0.02 0.00 0.00 0.00 0.00 0.03 0.01 0.08 0.02 0.00 0.01 0.00 0.00
0.02 0.02 0.02 0.09 0.08 0.05 0.03 0.05 0.10 0.06 0.06 0.06 0.07 0.05 0.03 0.01 0.00 0.00 0.00 0.00 0.02 0.03 0.04 0.08 0.05 0.04 0.05 0.02 0.01 0.00 0.00 0.00 0.00 0.00 0.00 0.01 0.05 0.08 0.06 0.01 0.02 0.00 0.01
0.01 0.01 0.02 0.04 0.04 0.03 0.01 0.02 0.02 0.04 0.07 0.07 0.07 0.07 0.05 0.04 0.02 0.01 0.01 0.01 0.02 0.01 0.01 0.05 0.07 0.05 0.03 0.03 0.03 0.02 0.00 0.00 0.00 0.00 0.01 0.03 0.12 0.18 0.08 0.12 0.10 0.01 0.05
0.00 0.00 0.00 0.01 0.01 0.02 0.01 0.01 0.01 0.01 0.02 0.05 0.06 0.06 0.06 0.06 0.05 0.04 0.03 0.02 0.03 0.02 0.02 0.03 0.04 0.05 0.05 0.04 0.03 0.03 0.01 0.00 0.00 0.00 0.00 0.04 0.13 0.26 0.15 0.13 0.16 0.07 0.16
0.00 0.00 0.00 0.00 0.00 0.01 0.00 0.00 0.01 0.01 0.01 0.01 0.03 0.05 0.06 0.06 0.07 0.05 0.03 0.02 0.01 0.01 0.02 0.03 0.02 0.02 0.04 0.04 0.02 0.04 0.02 0.00 0.00 0.00 0.00 0.01 0.05 0.23 0.19 0.14 0.16 0.14 0.16
0.00 0.00 0.00 0.00 0.00 0.00 0.00 0.00 0.00 0.01 0.01 0.00 0.01 0.04 0.07 0.08 0.06 0.05 0.03 0.02 0.00 0.00 0.00 0.00 0.00 0.02 0.01 0.01 0.02 0.03 0.03 0.02 0.00 0.00 0.00 0.00 0.04 0.18 0.23 0.24 0.10 0.24 0.34
0.00 0.00 0.00 0.00 0.00 0.00 0.00 0.00 0.00 0.00 0.00 0.00 0.00 0.01 0.04 0.05 0.04 0.05 0.05 0.02 0.01 0.00 0.00 0.00 0.00 0.01 0.00 0.01 0.02 0.01 0.02 0.03 0.00 0.00 0.01 0.01 0.06 0.12 0.23 0.36 0.16 0.21 0.25
0.00 0.00 0.00 0.00 0.00 0.00 0.00 0.00 0.00 0.00 0.00 0.00 0.00 0.00 0.02 0.04 0.10 0.12 0.14 0.11 0.02 0.00 0.00 0.00 0.00 0.01 0.00 0.00 0.00 0.01 0.01 0.00 0.00 0.00 0.01 0.01 0.03 0.08 0.16 0.36 0.21 0.18 0.20
0.00 0.00 0.00 0.00 0.00 0.00 0.00 0.00 0.00 0.00 0.00 0.00 0.00 0.00 0.03 0.10 0.17 0.16 0.12 0.07 0.03 0.02 0.00 0.00 0.00 0.01 0.01 0.00 0.01 0.00 0.00 0.01 0.01 0.02 0.02 0.03 0.01 0.04 0.08 0.31 0.37 0.39 0.23
0.00 0.00 0.00 0.00 0.00 0.00 0.00 0.00 0.00 0.00 0.00 0.00 0.00 0.00 0.01 0.04 0.10 0.13 0.11 0.09 0.09 0.05 0.01 0.00 0.00 0.00 0.02 0.07 0.08 0.06 0.04 0.09 0.03 0.05 0.05 0.16 0.03 0.03 0.04 0.16 0.34 0.43 0.36
0.00 0.00 0.00 0.00 0.00 0.00 0.00 0.00 0.00 0.00 0.00 0.00 0.00 0.00 0.01 0.03 0.04 0.06 0.05 0.05 0.05 0.03 0.01 0.01 0.01 0.01 0.01 0.02 0.02 0.04 0.07 0.12 0.07 0.11 0.03 0.06 0.02 0.00 0.08 0.13 0.24 0.38 0.36
0.00 0.00 0.00 0.00 0.00 0.00 0.00 0.00 0.00 0.00 0.00 0.00 0.00 0.00 0.00 0.00 0.01 0.03 0.04 0.04 0.04 0.02 0.02 0.00 0.00 0.01 0.01 0.02 0.01 0.00 0.00 0.02 0.02 0.02 0.02 0.01 0.02 0.02 0.06 0.07 0.14 0.61 0.42
0.00 0.00 0.00 0.00 0.00 0.00 0.00 0.00 0.00 0.00 0.00 0.00 0.00 0.00 0.00 0.01 0.00 0.01 0.03 0.03 0.03 0.03 0.01 0.01 0.01 0.00 0.01 0.01 0.01 0.01 0.01 0.01 0.01 0.00 0.00 0.00 0.00 0.02 0.01 0.02 0.05 0.60 2.63
0.00 0.00 0.00 0.00 0.00 0.00 0.00 0.00 0.00 0.00 0.00 0.00 0.00 0.00 0.01 0.01 0.01 0.00 0.01 0.02 0.03 0.02 0.02 0.01 0.01 0.01 0.01 0.01 0.02 0.01 0.00 0.00 0.00 0.00 0.00 0.00 0.00 0.01 0.02 0.02 0.06 0.74 1.09
0.00 0.00 0.00 0.00 0.00 0.00 0.00 0.00 0.00 0.00 0.00 0.00 0.00 0.00 0.00 0.01 0.01 0.01 0.01 0.02 0.03 0.02 0.02 0.02 0.04 0.03 0.02 0.01 0.00 0.00 0.00 0.00 0.00 0.00 0.00 0.00 0.01 0.00 0.01 0.01 0.02 0.75 1.46
0.00 0.00 0.00 0.00 0.00 0.00 0.00 0.00 0.00 0.00 0.00 0.00 0.00 0.00 0.00 0.00 0.00 0.00 0.02 0.03 0.05 0.03 0.01 0.02 0.02 0.02 0.00 0.00 0.00 0.00 0.00 0.00 0.00 0.00 0.00 0.00 0.03 0.02 0.00 0.01 0.01 0.12 0.46
0.00 0.00 0.00 0.00 0.00 0.00 0.00 0.00 0.00 0.00 0.00 0.00 0.00 0.00 0.00 0.00 0.00 0.01 0.01 0.01 0.07 0.10 0.10 0.09 0.06 0.03 0.01 0.00 0.00 0.00 0.00 0.00 0.00 0.00 0.00 0.00 0.02 0.03 0.02 0.01 0.02 0.02 0.05
0.00 0.00 0.00 0.00 0.00 0.00 0.00 0.00 0.00 0.00 0.00 0.00 0.00 0.00 0.00 0.00 0.00 0.00 0.01 0.01 0.02 0.03 0.03 0.05 0.08 0.08 0.03 0.01 0.00 0.01 0.00 0.00 0.00 0.00 0.00 0.01 0.03 0.06 0.06 0.04 0.08 0.12 0.07
0.00 0.00 0.00 0.00 0.00 0.00 0.00 0.00 0.00 0.00 0.00 0.00 0.00 0.00 0.00 0.00 0.00 0.00 0.00 0.01 0.03 0.05 0.06 0.07 0.06 0.06 0.04 0.01 0.00 0.01 0.00 0.00 0.00 0.00 0.00 0.01 0.03 0.08 0.13 0.07 0.08 0.16 0.14
0.00 0.00 0.00 0.00 0.00 0.00 0.00 0.00 0.00 0.00 0.00 0.00 0.00 0.00 0.00 0.00 0.00 0.00 0.00 0.00 0.03 0.09 0.09 0.10 0.14 0.14 0.08 0.03 0.01 0.00 0.01 0.00 0.00 0.00 0.00 0.01 0.03 0.09 0.21 0.22 0.11 0.14 0.14
0.00 0.00 0.00 0.00 0.00 0.00 0.00 0.00 0.00 0.00 0.00 0.00 0.00 0.00 0.00 0.00 0.00 0.00 0.00 0.00 0.02 0.06 0.10 0.13 0.13 0.15 0.16 0.09 0.06 0.03 0.00 0.00 0.00 0.00 0.00 0.01 0.04 0.13 0.31 0.36 0.30 0.13 0.14
0.00 0.00 0.00 0.00 0.00 0.00 0.00 0.00 0.00 0.00 0.00 0.00 0.00 0.00 0.00 0.00 0.00 0.00 0.00 0.00 0.01 0.03 0.05 0.10 0.14 0.13 0.16 0.14 0.07 0.05 0.02 0.01 0.00 0.00 0.00 0.01 0.02 0.11 0.34 0.53 0.51 0.34 0.23
0.00 0.00 0.00 0.00 0.00 0.00 0.00 0.00 0.00 0.00 0.00 0.00 0.00 0.00 0.00 0.00 0.00 0.00 0.00 0.00 0.00 0.02 0.04 0.05 0.11 0.17 0.17 0.16 0.10 0.07 0.04 0.01 0.00 0.00 0.01 0.06 0.05 0.25 0.40 0.59 0.78 0.62 0.42